This demonstration page uses our WeatherBlox Daily Observations layout. Learn more.

Left ArrowRight Arrow

Hourly Observations for October 14, 2021

Temp ( °F °C ) Dew Point ( °F °C ) Humidity (%) Winds ( mph kmh ) Pressure ( in mb ) Visibility ( mi km ) Precip ( " mm )
12:53 am 00:53 Clear 60 15.6 29 -1.7 31 31 N 14 22 30.05 1018 10 16 N/A
1:53 am 01:53 Clear 58 14.4 29 -1.7 33 33 N 12 19 30.07 1018 10 16 N/A
2:53 am 02:53 Clear 56 13.3 30 -1.1 37 37 NNW 8 13 30.09 1019 10 16 N/A
3:53 am 03:53 Clear 57 13.9 30 -1.1 36 36 NNW 10 17 30.09 1019 10 16 N/A
4:53 am 04:53 Clear 57 13.9 30 -1.1 36 36 NNW 13 20 30.10 1019 10 16 N/A
5:53 am 05:53 Clear 56 13.3 30 -1.1 37 37 NNW 10 17 30.11 1020 10 16 N/A
6:53 am 06:53 Clear 55 12.8 30 -1.1 38 38 NNW 12 19 30.14 1021 10 16 N/A
7:53 am 07:53 Sunny 56 13.3 30 -1.1 37 37 NW 10 17 30.15 1021 10 16 N/A
8:53 am 08:53 Sunny 59 15 30 -1.1 33 33 NNW 9 15 30.17 1022 10 16 N/A
9:53 am 09:53 Sunny 63 17.2 30 -1.1 29 29 N 15 24 30.18 1022 10 16 N/A
10:53 am 10:53 Sunny 65 18.3 30 -1.1 27 27 N 15 24 30.17 1022 10 16 N/A
11:53 am 11:53 Sunny 69 20.6 29 -1.7 22 22 NNW 14 22 30.15 1021 10 16 N/A
12:53 pm 12:53 Sunny 72 22.2 28 -2.2 19 19 N 13 20 30.13 1020 10 16 N/A
1:53 pm 13:53 Sunny 74 23.3 25 -3.9 16 16 NNW 15 24 30.11 1020 10 16 N/A
2:53 pm 14:53 Sunny 76 24.4 24 -4.4 14 14 N 20 31 30.09 1019 10 16 N/A
3:53 pm 15:53 Sunny 76 24.4 27 -2.8 16 16 NNW 12 19 30.08 1019 10 16 N/A
4:53 pm 16:53 Sunny 77 25 27 -2.8 16 16 N 9 15 30.06 1018 10 16 N/A
5:53 pm 17:53 Sunny 76 24.4 28 -2.2 17 17 NNW 8 13 30.06 1018 10 16 N/A
6:53 pm 18:53 Clear 71 21.7 29 -1.7 21 21 N 3 6 30.07 1018 10 16 N/A
7:53 pm 19:53 Clear 67 19.4 30 -1.1 25 25 NNW 7 11 30.08 1019 10 16 N/A
8:53 pm 20:53 Clear 66 18.9 32 undefined 28 28 NNW 6 9 30.09 1019 10 16 N/A
9:53 pm 21:53 Clear 62 16.7 32 undefined 32 32 NNW 3 6 30.10 1019 10 16 N/A
10:53 pm 22:53 Clear 56 13.3 31 -0.6 39 39 N N/A 30.10 1019 10 16 N/A
11:53 pm 23:53 Clear 53 11.7 32 undefined 45 45 N N/A 30.11 1020 10 16 N/A

Powered by AerisWeather